Regional Weather Roundup
Issued by NWS

Home | Current Version | Previous Version | Text Only | Print | Product List | Glossary Off
Versions: 1 2 3 4 5 6 7 8 9 10 11 12 13 14 15 16 17 18 19 20 21 22 23 24 25 26 27 28 29 30 31 32 33 34 35 36 37 38 39 40 41 42 43 44 45 46 47 48 49 50

085
ASUS43 KOAX 291402
RWRNE

WEATHER ROUNDUP FOR NEBRASKA
NATIONAL WEATHER SERVICE OMAHA NE
900 AM CDT MON MAY 29 2017

NOTES: SATELLITE DATA IS BEING USED TO AUGMENT CLOUD COVER ABOVE
       12000 FEET.
       "FAIR" INDICATES FEW OR NO CLOUDS BELOW 12,000 FEET WITH NO
       SIGNIFICANT WEATHER AND/OR OBSTRUCTIONS TO VISIBILITY.

  * THESE STATIONS DO NOT REPORT WEATHER SUCH AS RAIN...SNOW OR FOG.

NEZ001>004-019>022-054>056-291500-
NEBRASKA PANHANDLE

CITY           SKY/WX    TMP DP  RH WIND       PRES   REMARKS
SCOTTSBLUFF    SUNNY     56  45  66 W8        30.20R
ALLIANCE       SUNNY     56  45  66 NW14      30.17R
CHADRON        MOSUNNY   55  45  68 W5        30.18R
GORDON         FAIR      54  42  63 NW7       30.16S
KIMBALL        SUNNY     57  41  54 NW9       30.23S
SIDNEY         SUNNY     57  46  66 NW10      30.21R
$$

NEZ057>060-069>072-079>082-291500-
SOUTHWEST NEBRASKA

CITY           SKY/WX    TMP DP  RH WIND       PRES   REMARKS
NORTH PLATTE   SUNNY     58  50  75 NW7       30.14R
IMPERIAL       SUNNY     59  44  57 NW12      30.17R
LEXINGTON      SUNNY     59  49  68 NW10      30.11R
MCCOOK         SUNNY     62  48  60 NW15      30.13R
OGALLALA       SUNNY     59  47  62 NW14      30.16R
$$

NEZ005>010-023>029-035>040-094-291500-
NORTH CENTRAL NEBRASKA

CITY           SKY/WX    TMP DP  RH WIND       PRES   REMARKS
VALENTINE      SUNNY     58  40  51 NW10      30.11R
AINSWORTH      SUNNY     56  42  61 NW13      30.10R
BROKEN BOW     SUNNY     60  43  53 N17       30.09R
O`NEILL        SUNNY     59  41  50 NW12      30.07R
ORD            SUNNY     59  46  62 NW9       30.07R
THEDFORD       SUNNY     58  43  57 NW9       30.13R
$$

NEZ041-046>049-061>064-073>077-083>087-291500-
SOUTH CENTRAL NEBRASKA

CITY           SKY/WX    TMP DP  RH WIND       PRES   REMARKS
GRAND ISLAND   SUNNY     61  50  67 NW12      30.07R
AURORA         SUNNY     62  48  60 NW13      30.05R
HASTINGS       SUNNY     61  47  59 NW9       30.07R
HEBRON         SUNNY     63  51  63 NW6       30.05R
HOLDREGE       SUNNY     60  48  64 N10       30.09R
KEARNEY *      SUNNY     63  46  55 NW12      30.09R
$$

NEZ011>018-030>034-042>045-291500-
NORTHEAST NEBRASKA

CITY           SKY/WX    TMP DP  RH WIND       PRES   REMARKS
NORFOLK        SUNNY     60  45  57 NW12      30.02R
ALBION         SUNNY     61  49  64 NW8       30.05R
BLAIR          SUNNY     63  49  61 NW7       29.98S
FREMONT        SUNNY     63  49  61 W9        30.01R
TEKAMAH        SUNNY     65  46  50 CALM      29.98R
WAYNE          SUNNY     62  45  54 NW15      30.01R
$$

NEZ050>053-065>068-078-088>093-291500-
SOUTHEAST NEBRASKA

CITY           SKY/WX    TMP DP  RH WIND       PRES   REMARKS
LINCOLN        SUNNY     65  51  60 NW7       30.00F
OMAHA EPPLEY   MOSUNNY   65  49  56 NW7       29.97S
BEATRICE       SUNNY     65  51  62 NW7       30.01R
FALLS CITY     SUNNY     64  52  64 NW9       29.98R
NEBRASKA CITY  SUNNY     66  44  44 NW8       29.99R
PLATTSMOUTH    SUNNY     65  50  58 NW6       29.98S
$$

NEZ044-045-051>053-067-291500-
OMAHA AREA

CITY           SKY/WX    TMP DP  RH WIND       PRES   REMARKS
OMAHA EPPLEY   MOSUNNY   65  49  56 NW7       29.97S
BLAIR          SUNNY     63  49  61 NW7       29.98S
FREMONT        SUNNY     63  49  61 W9        30.01R
MILLARD        SUNNY     66  52  59 NW5       29.98S
OFFUTT AFB     SUNNY     64  50  59 NW7       29.97R
PLATTSMOUTH    SUNNY     65  50  58 NW6       29.98S
WAHOO          FAIR      66  47  49 NW10      30.00R
$$




USA.gov is the U.S. government's official web portal to all federal, state and local government web resources and services.